Lid_Strength_Index
-1 -1 -1 -2 -1 -1 -1 -0 -0 -0 -0 0 0 1 1 1 2 7 9 6 3 1 0 4 7 6 6 7 7 8 13 15 14 14 13 11 11 10 10 10 10 9 9 5 3
-1 -1 -1 -1 -1 -1 -0 -0 -0 -0 -0 1 1 2 1 2 6 9 5 2 1 1 5 8 8 7 9 9 9 11 14 13 12 13 13 12 11 11 11 11 10 9 4 3 3
-1 -1 -1 -1 -1 -1 -0 -0 -0 -0 0 1 1 2 2 4 9 10 3 2 2 2 5 7 7 7 10 9 10 12 13 12 12 11 11 11 12 11 12 13 12 10 6 5 5
-1 -1 -1 -1 -1 -1 -0 0 -0 -0 1 1 1 2 2 7 13 8 1 1 1 4 6 8 9 10 11 11 10 12 11 11 10 11 11 12 11 12 12 12 10 7 5 5 5
-1 -1 -1 -1 -1 -1 -0 -0 0 -0 1 1 2 2 6 10 12 7 2 3 5 6 8 9 10 10 12 11 10 12 11 10 11 11 12 11 13 13 13 12 10 7 5 5 5
-1 -1 -1 -1 -1 -1 0 -0 0 0 1 2 2 3 8 12 8 7 6 6 6 7 9 8 10 10 11 11 12 11 11 11 10 10 10 12 12 12 13 11 11 10 9 7 6
-1 -1 -1 -1 -1 -0 0 -0 1 1 2 2 3 7 10 12 9 7 7 7 6 6 8 8 8 9 10 12 10 11 13 12 12 11 11 11 13 13 12 11 12 10 10 9 8
-1 -1 -1 -1 -1 -0 0 0 1 2 2 2 3 9 13 8 9 7 7 7 6 6 7 7 7 9 10 10 11 13 14 16 12 11 11 12 15 12 12 12 12 12 11 10 9
-0 -1 -1 -1 -0 1 1 1 2 2 3 4 7 9 13 6 9 8 7 8 7 7 7 7 8 11 11 13 15 14 17 16 14 11 12 13 14 12 12 11 12 12 12 11 11
-0 -0 -1 -0 -0 1 1 1 2 3 6 8 9 10 10 11 9 9 8 8 8 8 8 9 10 12 13 14 18 17 17 15 15 14 14 14 14 13 13 13 14 13 13 12 11
-1 -1 -0 -0 -0 1 4 5 6 9 11 12 12 11 10 9 8 8 8 9 8 9 13 11 14 17 16 15 14 15 15 16 14 13 15 15 16 15 14 13 14 14 13 12 12
-1 -1 0 0 1 1 5 8 9 9 13 10 10 10 9 9 10 9 8 10 11 14 11 13 16 14 12 13 14 14 16 16 14 13 15 15 16 14 13 14 14 14 13 12 12
-1 -0 1 2 2 5 7 8 6 7 12 12 11 10 11 9 11 11 9 10 13 14 15 15 14 12 12 15 14 16 16 17 16 14 14 16 17 15 13 13 12 12 12 12 11
-0 2 3 2 4 7 8 6 6 7 17 13 11 10 9 9 11 8 9 10 12 15 14 15 12 12 14 15 14 16 14 14 16 19 19 16 23 17 15 14 13 13 13 13 12
2 3 2 2 7 8 6 5 7 8 22 12 11 8 9 10 10 10 8 9 12 14 13 15 14 14 15 14 13 15 14 15 16 21 22 19 24 18 15 16 15 14 13 13 12
3 3 3 5 7 7 6 6 8 17 23 17 11 11 12 10 10 9 9 9 9 12 13 14 12 13 14 13 13 13 15 16 17 21 26 25 22 19 17 15 15 14 13 12 12
3 3 5 5 9 6 6 9 17 22 16 18 15 13 14 14 12 11 12 13 14 18 17 15 15 13 12 15 14 15 20 25 22 25 25 27 23 20 16 14 14 14 13 13 12
3 4 5 6 7 7 8 15 21 19 19 13 14 15 16 15 15 14 14 16 14 15 19 22 21 16 13 15 16 17 19 22 28 24 22 27 24 18 14 13 13 13 13 12 12
2 6 8 8 7 8 12 20 21 17 14 15 15 18 19 16 17 16 17 17 15 15 19 21 19 15 14 14 15 17 22 17 26 31 27 23 19 15 15 15 14 14 13 14 13
5 8 9 7 8 10 15 18 19 13 13 14 17 17 23 20 18 19 18 15 16 15 16 17 23 18 15 14 15 17 16 23 24 29 30 24 27 19 19 19 18 15 16 15 14
7 12 8 8 9 14 20 22 17 12 11 14 16 19 17 19 17 19 18 16 15 15 15 18 22 21 17 21 21 20 21 21 20 19 25 28 22 19 20 19 18 18 15 19 18
9 16 8 8 15 16 21 18 12 13 11 13 14 15 16 16 17 21 17 16 13 15 16 16 17 24 20 16 15 16 18 17 23 25 23 22 23 20 18 18 17 17 17 18 19
12 13 8 9 19 21 18 16 13 14 14 14 14 14 14 19 20 16 16 13 13 14 15 15 22 28 22 19 17 18 16 16 19 17 24 23 21 21 21 21 20 18 18 17 19
11 18 15 14 15 16 19 18 17 13 13 13 14 13 15 19 16 20 16 13 13 13 10 12 16 23 23 22 21 22 18 16 17 23 20 19 18 20 19 20 20 19 20 19 19
13 18 16 21 18 17 16 16 17 18 14 14 16 15 16 21 18 22 16 14 13 11 13 15 23 18 19 19 20 20 22 18 20 18 18 18 18 17 17 16 16 18 21 21 18
15 16 16 19 15 16 15 16 16 16 15 16 18 15 15 21 17 17 16 15 15 14 15 14 24 22 24 17 16 19 17 18 16 16 16 16 17 16 21 22 20 18 20 21 18
13 13 12 15 15 17 16 16 15 15 14 14 14 15 16 15 14 14 14 14 14 15 15 18 23 27 27 22 24 24 21 18 18 20 15 17 15 20 22 22 19 17 20 18 17